�������l�o���
Date,Time,MP-1(��Sv/h),MP-2(��Sv/h),MP-3(��Sv/h),MP-4(��Sv/h),MP-5(��Sv/h),MP-6(��Sv/h),MP-7(��Sv/h),MP-8(��Sv/h),����,����(m/s),���J
2018/09/02,00:00,0.805,1.175,0.835,1.494,1.077,0.467,0.815,0.772,�k,1.2,��
2018/09/02,00:10,0.804,1.177,0.838,1.495,1.078,0.468,0.813,0.774,�k,0.9,��
2018/09/02,00:20,0.805,1.174,0.838,1.494,1.077,0.467,0.813,0.770,-,CALM,��
2018/09/02,00:30,0.804,1.176,0.836,1.495,1.077,0.467,0.814,0.774,�k�k��,1.1,��
2018/09/02,00:40,0.803,1.177,0.839,1.496,1.077,0.468,0.814,0.773,�k�k��,1.5,��
2018/09/02,00:50,0.804,1.176,0.835,1.494,1.076,0.467,0.813,0.772,�k�k��,2.0,��
2018/09/02,01:00,0.804,1.177,0.838,1.496,1.077,0.468,0.814,0.773,�k�k��,2.0,��
2018/09/02,01:10,0.804,1.176,0.836,1.496,1.078,0.468,0.814,0.771,�k��,1.7,��
2018/09/02,01:20,0.806,1.179,0.838,1.495,1.078,0.467,0.815,0.772,�k��,1.5,��
2018/09/02,01:30,0.803,1.175,0.838,1.493,1.078,0.469,0.814,0.771,�k��,1.9,��
2018/09/02,01:40,0.804,1.179,0.837,1.497,1.079,0.467,0.814,0.773,�k��,2.0,��
2018/09/02,01:50,0.804,1.177,0.836,1.496,1.077,0.468,0.815,0.773,�k��,2.5,��
2018/09/02,02:00,0.805,1.176,0.838,1.496,1.076,0.470,0.815,0.772,�k��,2.6,��
2018/09/02,02:10,0.805,1.177,0.837,1.494,1.075,0.467,0.815,0.773,�k��,2.3,��
2018/09/02,02:20,0.805,1.178,0.836,1.496,1.078,0.469,0.815,0.772,�k�k��,2.9,��
2018/09/02,02:30,0.805,1.176,0.838,1.495,1.076,0.468,0.816,0.771,�k�k��,4.0,��
2018/09/02,02:40,0.803,1.178,0.836,1.496,1.076,0.468,0.814,0.772,�k�k��,4.3,��
2018/09/02,02:50,0.804,1.177,0.838,1.493,1.077,0.467,0.815,0.774,�k�k��,3.8,��
2018/09/02,03:00,0.804,1.177,0.837,1.495,1.078,0.468,0.816,0.773,�k�k��,3.4,��
2018/09/02,03:10,0.805,1.178,0.837,1.495,1.076,0.467,0.815,0.773,�k��,3.4,��
2018/09/02,03:20,0.804,1.176,0.839,1.496,1.076,0.467,0.815,0.772,�k��,3.6,��
2018/09/02,03:30,0.805,1.177,0.837,1.494,1.077,0.468,0.815,0.772,�k�k��,3.5,��
2018/09/02,03:40,0.804,1.175,0.837,1.496,1.077,0.468,0.814,0.772,�k�k��,3.5,��
2018/09/02,03:50,0.805,1.177,0.839,1.497,1.077,0.468,0.814,0.772,�k�k��,3.6,��
2018/09/02,04:00,0.805,1.177,0.838,1.497,1.076,0.467,0.817,0.772,�k�k��,3.5,��
2018/09/02,04:10,0.804,1.177,0.839,1.496,1.077,0.467,0.814,0.774,�k�k��,3.5,��
2018/09/02,04:20,0.802,1.176,0.837,1.495,1.077,0.468,0.814,0.773,�k�k��,4.2,��
2018/09/02,04:30,0.806,1.176,0.838,1.496,1.077,0.467,0.814,0.775,�k�k��,4.1,��
2018/09/02,04:40,0.805,1.177,0.837,1.497,1.077,0.469,0.814,0.773,�k�k��,4.2,��
2018/09/02,04:50,0.806,1.176,0.837,1.496,1.080,0.467,0.813,0.773,�k�k��,4.1,��
2018/09/02,05:00,0.805,1.177,0.837,1.499,1.078,0.467,0.813,0.774,�k�k��,3.6,��
2018/09/02,05:10,0.804,1.180,0.837,1.496,1.076,0.468,0.815,0.774,�k�k��,3.6,��
2018/09/02,05:20,0.804,1.178,0.837,1.494,1.077,0.468,0.816,0.772,�k�k��,3.5,��
2018/09/02,05:30,0.804,1.179,0.839,1.499,1.077,0.469,0.814,0.773,�k�k��,3.6,��
2018/09/02,05:40,0.804,1.178,0.838,1.497,1.079,0.467,0.816,0.772,�k�k��,3.6,��
2018/09/02,05:50,0.805,1.179,0.839,1.496,1.077,0.469,0.813,0.774,�k�k��,3.5,��
2018/09/02,06:00,0.807,1.177,0.838,1.497,1.080,0.469,0.814,0.773,�k�k��,3.4,��
2018/09/02,06:10,0.805,1.178,0.840,1.497,1.076,0.467,0.815,0.773,�k�k��,3.8,��
2018/09/02,06:20,0.805,1.180,0.839,1.496,1.080,0.468,0.814,0.773,�k�k��,4.4,��
2018/09/02,06:30,0.803,1.181,0.839,1.497,1.078,0.469,0.814,0.773,�k�k��,4.3,��
2018/09/02,06:40,0.805,1.178,0.839,1.496,1.078,0.466,0.815,0.773,�k�k��,4.3,��
2018/09/02,06:50,0.805,1.178,0.839,1.496,1.078,0.468,0.814,0.773,�k�k��,4.6,��
2018/09/02,07:00,0.805,1.179,0.840,1.496,1.078,0.467,0.816,0.774,�k�k��,5.0,��
2018/09/02,07:10,0.805,1.177,0.839,1.499,1.080,0.466,0.816,0.773,�k�k��,5.6,��
2018/09/02,07:20,0.806,1.179,0.839,1.498,1.079,0.468,0.815,0.773,�k�k��,6.0,��
2018/09/02,07:30,0.806,1.177,0.838,1.498,1.077,0.467,0.814,0.773,�k�k��,5.2,��
2018/09/02,07:40,0.805,1.178,0.839,1.498,1.078,0.467,0.815,0.771,�k�k��,5.3,��
2018/09/02,07:50,0.806,1.177,0.838,1.500,1.077,0.467,0.814,0.772,�k�k��,4.7,��
2018/09/02,08:00,0.807,1.179,0.839,1.496,1.077,0.468,0.815,0.771,�k�k��,4.7,��
2018/09/02,08:10,0.803,1.180,0.838,1.495,1.076,0.468,0.814,0.773,�k�k��,4.8,��
2018/09/02,08:20,0.805,1.178,0.840,1.497,1.080,0.466,0.816,0.772,�k�k��,4.0,��
2018/09/02,08:30,0.803,1.178,0.840,1.498,1.078,0.466,0.814,0.774,�k�k��,4.6,��
2018/09/02,08:40,0.802,1.180,0.839,1.499,1.076,0.468,0.815,0.772,�k�k��,5.6,��
2018/09/02,08:50,0.804,1.179,0.840,1.497,1.080,0.466,0.816,0.774,�k�k��,5.0,��
2018/09/02,09:00,0.802,1.180,0.838,1.497,1.078,0.467,0.814,0.772,�k�k��,4.2,��
2018/09/02,09:10,0.803,1.180,0.839,1.495,1.077,0.467,0.817,0.771,�k�k��,3.6,��
2018/09/02,09:20,0.804,1.178,0.838,1.497,1.078,0.467,0.814,0.772,�k�k��,3.8,��
2018/09/02,09:30,0.803,1.178,0.839,1.497,1.077,0.466,0.815,0.771,�k�k��,4.3,��
2018/09/02,09:40,0.802,1.179,0.838,1.498,1.076,0.466,0.814,0.771,�k�k��,3.7,��
2018/09/02,09:50,0.803,1.180,0.838,1.495,1.077,0.464,0.814,0.771,�k��,4.1,��
2018/09/02,10:00,0.804,1.177,0.837,1.499,1.077,0.466,0.816,0.772,�k��,3.9,��
2018/09/02,10:10,0.802,1.179,0.837,1.496,1.076,0.466,0.815,0.773,�k��,3.3,��
2018/09/02,10:20,0.802,1.178,0.837,1.498,1.079,0.467,0.815,0.771,�k��,3.9,��
2018/09/02,10:30,0.804,1.179,0.840,1.496,1.078,0.466,0.815,0.771,�k�k��,3.7,��
2018/09/02,10:40,0.805,1.180,0.840,1.495,1.080,0.467,0.815,0.771,�k�k��,2.6,�L
2018/09/02,10:50,0.805,1.178,0.837,1.498,1.078,0.466,0.815,0.771,�k�k��,3.3,�L
2018/09/02,11:00,0.805,1.181,0.841,1.500,1.082,0.464,0.818,0.772,�k,2.0,�L
2018/09/02,11:10,0.804,1.177,0.838,1.500,1.080,0.466,0.814,0.773,�k,3.2,�L
2018/09/02,11:20,0.804,1.179,0.836,1.502,1.080,0.466,0.816,0.772,�k,3.0,�L
2018/09/02,11:30,0.807,1.182,0.840,1.496,1.079,0.466,0.816,0.771,�k�k��,3.0,�L
2018/09/02,11:40,0.804,1.182,0.838,1.500,1.083,0.467,0.816,0.771,�k�k��,3.0,��
2018/09/02,11:50,0.805,1.179,0.837,1.501,1.082,0.468,0.816,0.771,�k,3.6,��
2018/09/02,12:00,0.804,1.181,0.839,1.501,1.078,0.467,0.816,0.772,�k,3.7,��
2018/09/02,12:10,0.806,1.183,0.840,1.497,1.081,0.465,0.815,0.773,�k,3.8,��
2018/09/02,12:20,0.807,1.182,0.838,1.501,1.081,0.466,0.815,0.771,�k,4.1,��
2018/09/02,12:30,0.806,1.180,0.838,1.499,1.080,0.467,0.816,0.772,�k�k��,3.9,��
2018/09/02,12:40,0.806,1.179,0.837,1.501,1.082,0.468,0.818,0.771,�k,5.2,��
2018/09/02,12:50,0.807,1.183,0.837,1.498,1.080,0.465,0.817,0.771,�k,5.5,��
2018/09/02,13:00,0.806,1.182,0.836,1.500,1.080,0.467,0.817,0.772,�k,4.4,��
2018/09/02,13:10,0.806,1.182,0.838,1.499,1.081,0.466,0.816,0.773,�k�k��,3.8,��
2018/09/02,13:20,0.807,1.184,0.839,1.497,1.080,0.467,0.817,0.773,�k,4.2,��
2018/09/02,13:30,0.807,1.181,0.838,1.500,1.084,0.467,0.816,0.772,�k,4.2,��
2018/09/02,13:40,0.807,1.181,0.839,1.499,1.083,0.467,0.817,0.771,�k,2.9,��
2018/09/02,13:50,0.808,1.185,0.840,1.501,1.084,0.465,0.817,0.772,�k,3.5,�L
2018/09/02,14:00,0.806,1.185,0.840,1.498,1.083,0.467,0.817,0.773,�k�k��,3.6,�L
2018/09/02,14:10,0.806,1.179,0.836,1.498,1.084,0.466,0.816,0.771,�k,4.2,�L
2018/09/02,14:20,0.804,1.175,0.835,1.499,1.082,0.465,0.814,0.771,�k,3.8,�L
2018/09/02,14:30,0.803,1.166,0.836,1.496,1.080,0.466,0.815,0.771,�k,3.3,�L
2018/09/02,14:40,0.803,1.161,0.833,1.494,1.078,0.465,0.816,0.770,�k�k��,3.1,�L
2018/09/02,14:50,0.803,1.160,0.833,1.496,1.078,0.466,0.815,0.771,�k�k��,2.0,�L
2018/09/02,15:00,0.801,1.158,0.833,1.491,1.075,0.465,0.815,0.770,�k�k��,2.0,�L
2018/09/02,15:10,0.800,1.156,0.831,1.490,1.073,0.464,0.816,0.772,�k,2.3,�L
2018/09/02,15:20,0.799,1.158,0.832,1.490,1.075,0.463,0.817,0.771,�k,2.3,��
2018/09/02,15:30,0.800,1.161,0.833,1.489,1.073,0.465,0.814,0.772,�k�k��,2.3,��
2018/09/02,15:40,0.801,1.160,0.831,1.491,1.074,0.465,0.816,0.771,�k�k��,2.0,��
2018/09/02,15:50,0.799,1.159,0.832,1.491,1.075,0.464,0.815,0.772,�k�k��,2.2,��
2018/09/02,16:00,0.800,1.160,0.834,1.491,1.077,0.464,0.814,0.774,�k��,2.0,�L
2018/09/02,16:10,0.801,1.161,0.832,1.491,1.074,0.464,0.814,0.773,�k��,1.9,�L
2018/09/02,16:20,0.798,1.161,0.831,1.493,1.076,0.464,0.814,0.771,�k��,1.7,�L
2018/09/02,16:30,0.800,1.164,0.831,1.492,1.076,0.464,0.814,0.771,�k��,1.9,�L
2018/09/02,16:40,0.799,1.162,0.832,1.488,1.076,0.463,0.813,0.773,�k��,1.7,�L
2018/09/02,16:50,0.800,1.161,0.831,1.491,1.076,0.464,0.813,0.770,���k��,1.2,�L
2018/09/02,17:00,0.799,1.163,0.832,1.488,1.076,0.464,0.816,0.771,�k�k��,1.9,�L
2018/09/02,17:10,0.800,1.163,0.831,1.491,1.074,0.462,0.815,0.773,�k�k��,1.2,�L
2018/09/02,17:20,0.799,1.162,0.833,1.491,1.074,0.462,0.816,0.772,�k,1.2,��
2018/09/02,17:30,0.798,1.161,0.831,1.489,1.076,0.464,0.815,0.772,�k�k��,1.5,��
2018/09/02,17:40,0.797,1.163,0.834,1.491,1.074,0.464,0.816,0.772,�k�k��,1.5,�L
2018/09/02,17:50,0.798,1.163,0.832,1.489,1.072,0.465,0.815,0.773,�k�k��,1.2,�L
2018/09/02,18:00,0.796,1.160,0.831,1.490,1.072,0.463,0.814,0.774,�k,3.2,�L
2018/09/02,18:10,0.792,1.153,0.827,1.479,1.063,0.462,0.810,0.768,�k�k��,4.4,�L
2018/09/02,18:20,0.789,1.143,0.825,1.472,1.056,0.462,0.808,0.765,���k��,3.2,�L
2018/09/02,18:30,0.791,1.146,0.824,1.468,1.058,0.462,0.805,0.766,�k,1.5,�L
2018/09/02,18:40,0.791,1.145,0.825,1.468,1.059,0.461,0.807,0.765,�k,2.2,�L
2018/09/02,18:50,0.792,1.148,0.824,1.468,1.057,0.461,0.804,0.762,�k��,2.2,�L
2018/09/02,19:00,0.788,1.144,0.820,1.465,1.056,0.459,0.804,0.764,�k��,3.0,�L
2018/09/02,19:10,0.789,1.145,0.822,1.464,1.056,0.460,0.803,0.763,�k�k��,2.8,�L
2018/09/02,19:20,0.788,1.141,0.822,1.462,1.050,0.458,0.805,0.763,�k�k��,3.6,�L
2018/09/02,19:30,0.790,1.143,0.821,1.462,1.054,0.461,0.805,0.763,�k��,3.1,�L
2018/09/02,19:40,0.792,1.144,0.822,1.462,1.055,0.460,0.805,0.763,�k��,3.3,�L
2018/09/02,19:50,0.790,1.146,0.821,1.463,1.054,0.459,0.805,0.760,�k��,2.6,�L
2018/09/02,20:00,0.790,1.147,0.822,1.460,1.054,0.461,0.803,0.762,�k�k��,1.9,�L
2018/09/02,20:10,0.790,1.146,0.822,1.462,1.055,0.461,0.802,0.762,�k��,1.5,�L
2018/09/02,20:20,0.791,1.148,0.822,1.464,1.053,0.459,0.805,0.762,�k��,2.0,�L
2018/09/02,20:30,0.790,1.149,0.823,1.463,1.053,0.459,0.803,0.761,�k��,2.3,�L
2018/09/02,20:40,0.790,1.149,0.824,1.464,1.058,0.460,0.805,0.763,�k�k��,1.9,�L
2018/09/02,20:50,0.790,1.150,0.822,1.463,1.055,0.460,0.806,0.762,-,CALM,�L
2018/09/02,21:00,0.791,1.149,0.824,1.465,1.057,0.461,0.803,0.761,�k�k��,0.9,�L
2018/09/02,21:10,0.791,1.149,0.827,1.465,1.058,0.462,0.804,0.763,�k�k��,1.1,�L
2018/09/02,21:20,0.793,1.151,0.825,1.465,1.057,0.462,0.804,0.762,�k�k��,1.1,�L
2018/09/02,21:30,0.792,1.149,0.824,1.468,1.058,0.461,0.801,0.762,�k,0.9,�L
2018/09/02,21:40,0.793,1.149,0.825,1.465,1.055,0.464,0.802,0.760,�k�k��,1.9,�L
2018/09/02,21:50,0.789,1.147,0.824,1.463,1.056,0.460,0.801,0.760,���k��,0.9,�L
2018/09/02,22:00,0.791,1.149,0.822,1.464,1.053,0.463,0.800,0.759,�k,1.2,�L
2018/09/02,22:10,0.791,1.146,0.824,1.462,1.054,0.462,0.800,0.760,�k��,2.8,�L
2018/09/02,22:20,0.792,1.148,0.821,1.461,1.053,0.461,0.802,0.760,�k��,2.5,�L
2018/09/02,22:30,0.788,1.149,0.824,1.460,1.050,0.463,0.799,0.758,���k��,2.0,�L
2018/09/02,22:40,0.789,1.145,0.822,1.454,1.049,0.463,0.800,0.759,���k��,2.3,�L
2018/09/02,22:50,0.789,1.144,0.821,1.452,1.049,0.461,0.798,0.756,�k��,3.9,�L
2018/09/02,23:00,0.787,1.143,0.820,1.448,1.045,0.459,0.799,0.757,���k��,3.8,�L
2018/09/02,23:10,0.783,1.126,0.814,1.435,1.030,0.455,0.792,0.756,���쐼,0.6,�L
2018/09/02,23:20,0.774,1.107,0.807,1.423,1.018,0.453,0.791,0.755,���k��,2.2,�L
2018/09/02,23:30,0.776,1.115,0.810,1.430,1.028,0.455,0.794,0.755,�k��,2.9,�L
2018/09/02,23:40,0.783,1.118,0.811,1.435,1.033,0.459,0.795,0.756,�k��,3.3,�L
2018/09/02,23:50,0.783,1.126,0.816,1.440,1.035,0.462,0.798,0.757,�k�k��,3.6,�L
